Gillam, Manitoba

12:35 PM CST on December 07, 2016 (GMT -0600)
Gillam

Weather History for CYGX - August, 2014

Change the Weather History Date:

Wednesday, August 20, 2014

  Actual Average Record
Temperature  
Mean Temperature 68 °F -  
Max Temperature 85 °F 64 °F 89 °F (2008)
Min Temperature 52 °F 47 °F 39 °F (2016)
Cooling Degree Days 4    
Growing Degree Days 18 (Base 50)    
Moisture  
Dew Point 61 °F    
Average Humidity 73    
Maximum Humidity 100    
Minimum Humidity 40    
Precipitation  
Precipitation 0.00 in - - ()
Sea Level Pressure  
Sea Level Pressure 29.76 in    
Wind  
Wind Speed 5 mph ()    
Max Wind Speed 13 mph    
Max Gust Speed -    
Visibility 14.7 miles    
Events      
Averages and records for this station are not official NWS values.
T = Trace of Precipitation, MM = Missing Value Source: Averaged Metar Reports

Daily Weather History Graph

Daily Weather History Graph

Search for Another Location

Airport or City:

Trip Planner

Search our weather history database for the weather conditions in past years. The results will help you decide how hot, cold, wet, or windy it might be!

Date:

Astronomy

Aug. 20, 2014 Rise Set
Actual Time 5:58 AM CDT 8:44 PM CDT
Civil Twilight 5:15 AM CDT 9:26 PM CDT
Nautical Twilight 4:19 AM CDT 10:22 PM CDT
Astronomical Twilight 3:04 AM CDT 11:35 PM CDT
Moon 1:17 AM CDT (8/20) 5:50 PM CDT (8/20)
Length of Visible Light 16h 10m
Length of Day
14h 45m
Waning Crescent, 20% of the Moon is Illuminated
Aug 20
Waning Crescent
Aug 25
New
Sep 2
First Quarter
Sep 8
Full
Sep 15
Last Quarter

Hourly Weather History & Observations

Time (CDT) Temp. Heat Index Dew Point Humidity Pressure Visibility Wind Dir Wind Speed Gust Speed Precip Events Conditions
12:00 AM 64.4 °F - 60.8 °F 88% 29.72 in 15.0 mi SE 5.8 mph - N/A   Overcast
1:00 AM 62 °F - 60 °F 92% 29.73 in 15 mi East 2.3 mph - -   Overcast
1:00 AM 62.6 °F - 60.8 °F 94% 29.73 in 15.0 mi East 2.3 mph - N/A   Overcast
2:00 AM 60.8 °F - 60.8 °F 100% 29.73 in 15.0 mi ESE 4.6 mph - N/A   Mostly Cloudy
3:00 AM 60.8 °F - 60.8 °F 100% 29.73 in 15.0 mi ESE 4.6 mph - N/A   Mostly Cloudy
4:00 AM 59.0 °F - 59.0 °F 100% 29.74 in 15.0 mi ESE 5.8 mph - N/A   Partly Cloudy
5:00 AM 59.0 °F - 59.0 °F 100% 29.74 in 15.0 mi ESE 6.9 mph - N/A   Partly Cloudy
6:00 AM 59.0 °F - 59.0 °F 100% 29.77 in 15.0 mi Calm Calm - N/A   Mostly Cloudy
7:00 AM 61 °F - 61 °F 98% 29.77 in 15 mi ESE 6.9 mph - -   Mostly Cloudy
7:00 AM 60.8 °F - 60.8 °F 100% 29.77 in 15.0 mi ESE 5.8 mph - N/A   Mostly Cloudy
8:00 AM 62.6 °F - 60.8 °F 94% 29.77 in 15.0 mi SSE 5.8 mph - N/A   Mostly Cloudy
9:00 AM 68.0 °F - 62.6 °F 83% 29.78 in 15.0 mi SSE 5.8 mph - N/A   Mostly Cloudy
10:00 AM 71.6 °F - 62.6 °F 73% 29.79 in 15.0 mi South 8.1 mph - N/A   Mostly Cloudy
11:00 AM 77.0 °F - 64.4 °F 65% 29.79 in 15.0 mi SSW 6.9 mph - N/A   Mostly Cloudy
12:00 PM 80.6 °F 81.8 °F 62.6 °F 54% 29.79 in 15.0 mi South 9.2 mph - N/A   Mostly Cloudy
1:00 PM 82 °F - 62 °F 40% 29.78 in 15 mi South 12.7 mph - -   Smoke
1:00 PM 82.4 °F 83.4 °F 62.6 °F 51% 29.78 in 8.0 mi South 12.7 mph - N/A   Scattered Clouds
2:00 PM 84.2 °F 85.0 °F 62.6 °F 48% 29.76 in 15.0 mi SSW 10.4 mph - N/A   Scattered Clouds
3:00 PM 84.2 °F 84.4 °F 60.8 °F 45% 29.76 in 15.0 mi South 11.5 mph - N/A   Mostly Cloudy
4:00 PM 82.4 °F 82.9 °F 60.8 °F 48% 29.76 in 15.0 mi South 5.8 mph - N/A   Mostly Cloudy
5:00 PM 84.2 °F 84.4 °F 60.8 °F 45% 29.76 in 15.0 mi South 9.2 mph - N/A   Scattered Clouds
7:00 PM 79 °F - 60 °F 42% 29.76 in 15 mi South 4.6 mph - -   Scattered Clouds
7:00 PM 78.8 °F - 60.8 °F 54% 29.76 in 15.0 mi South 5.8 mph - N/A   Mostly Cloudy
8:00 PM 78.8 °F - 59.0 °F 51% 29.75 in 15.0 mi SSE 5.8 mph - N/A   Partly Cloudy
9:00 PM 73.4 °F - 59.0 °F 61% 29.76 in 15.0 mi ESE 4.6 mph - N/A   Partly Cloudy
10:00 PM 71.6 °F - 59.0 °F 64% 29.76 in 15.0 mi SE 5.8 mph - N/A   Partly Cloudy